{"data":{"norad_id":53054,"intl_designator":"2022-077M","name":"STARLINK-4339","alt_names":[],"object_type":"PAYLOAD","status":"ACTIVE","operator":null,"country":"US","launch_date":"2022-07-11","launch_site_code":"AFWTR","launch_vehicle":null,"mission":null,"orbit_class":"UNKNOWN","rcs_meters":null,"size_class":null,"mass_kg":null,"dimensions":null,"purposes":["comms"],"wikipedia_slug":null,"has_3d_model":false,"image_url":null,"decayed_at":null,"tle_current":{"epoch":"2026-05-25T01:33:11.592000Z","epoch_age_seconds":63444,"freshness":"FRESH","line1":"1 53054U 22077M   26145.06471750 -.00000335  00000+0 -19188-4 0  9996","line2":"2 53054  97.4496 326.1620 0001406 106.1638 253.9744 15.05648403212470","mean_motion":15.05648403,"eccentricity":0.0001406,"inclination_deg":97.4496,"raan_deg":326.162,"arg_perigee_deg":106.1638,"mean_anomaly_deg":253.9744,"bstar":-1.9188e-5,"rev_number":21247,"period_min":95.639858358087,"perigee_km":548.5420246634,"apogee_km":550.49008070182,"semimajor_km":6927.6530526826,"source":"CELESTRAK","updated_at":"2026-05-25T13:38:17.287900Z"}}}